Location: La Brionne
(46.1728°N, 1.7849°E)
Time: 17:54:44
(UTC+00:00)

USA 215 - Pass Details

Date: 28 October 2021
Orbit: 1099 x 1109 km, 123.0° (Epoch: 20 November)

Event Time Altitude Azimuth Distance (km) Brightness Sun altitude
Exits shadow 17:58:15 11° 51° (NE) 2,891 5.0 -13.3°
Maximum altitude 18:04:36 79° 327° (NNW) 1,127 3.4 -14.4°
Drops below altitude 10° 18:11:08 10° 241° (WSW) 2,960 6.6 -15.5°
Sets 18:13:37 0° 240° (WSW) 3,917 7.3 -16.0°
